Tracking 28529 objects as of 25-Feb-2024
HD Live streaming from Space Station
objects crossing your sky now

OBJECT L

Track OBJECT L now!
10-day predictions


NORAD ID: 55258
Int'l Code: 2023-007L
Perigee: 448.2 km
Apogee: 461.7 km
Inclination: 97.3 °
Period: 93.5 minutes
Semi major axis: 6825 km
RCS: Unknown
Launch date: January 15, 2023
Source: People's Republic of China (PRC)
Launch site: Taiyaun Space Center, China (TSC)
Your satellite tracking list
Your tracking list is empty




NASA's NSSDC Master Catalog

Two Line Element Set (TLE):
1 55258U 23007L   24055.88596558  .00030915  00000-0  78855-3 0  9991
2 55258  97.3305 132.5502 0009864 279.6909  80.3223 15.39414233 62125
Source of the keplerian elements: AFSPC